[Date Prev][Date Next][Thread Prev][Thread Next] - [Date Index][Thread Index][Author Index]

MIR & ISS Keps 4-29




MIR
1 16609U 86017A   99119.46192413  .00025913  00000-0  18159-3 0  4489
2 16609  51.6613 233.3173 0018190  74.1599 286.2027 15.73258881753990
ISS
1 25544U 98067A   99119.40259191  .00017114  00000-0  20392-3 0  5292
2 25544  51.5925  83.6171 0004809  45.8872 314.3101 15.60402549 25578


----
Via the sarex mailing list at AMSAT.ORG courtesy of AMSAT-NA.
To unsubscribe, send "unsubscribe sarex" to Majordomo@amsat.org



AMSAT Top AMSAT Home